Weather History for Los Angeles Downtown, CA

Change the Weather History Date:

Tuesday, March 5, 2013

  Actual Average Record
Temperature  
Mean Temperature 59 °F 60 °F  
Max Temperature 65 °F 70 °F 87 °F (1899)
Min Temperature 52 °F 51 °F 35 °F (1896)
Degree Days  
Heating Degree Days 6 5  
Month to date heating degree days 12 29  
Since 1 July heating degree days 787 804  
Cooling Degree Days 0 1  
Month to date cooling degree days 9 5  
Year to date cooling degree days 17 28  
Growing Degree Days 8 (Base 50)    
Moisture  
Dew Point 48 °F    
Average Humidity 70    
Maximum Humidity 83    
Minimum Humidity 56    
Precipitation  
Precipitation 0.00 in 0.11 in 1.98 in (1894)
Month to date precipitation 0.00 0.55  
Year to date precipitation 1.38 7.47  
Since 1 July precipitation 4.60 11.79  
Sea Level Pressure  
Sea Level Pressure 30.08 in    
Wind  
Wind Speed 1 mph (West)    
Max Wind Speed 10 mph    
Max Gust Speed 16 mph    
Visibility 8 miles    
Events      
T = Trace of Precipitation, MM = Missing Value Source: NWS Daily Summary

Daily Weather History Graph

Daily Weather History Graph

Search for Another Location

Airport:

Trip Planner

Search our weather history database for the weather conditions in past years. The results will help you decide how hot, cold, wet, or windy it might be!

Date:

Astronomy

Mar. 05, 2013 Rise Set
Actual Time 6:16 AM PST 5:53 PM PST
Civil Twilight 5:51 AM PST 6:18 PM PST
Nautical Twilight 5:22 AM PST 6:47 PM PST
Astronomical Twilight 4:53 AM PST 7:16 PM PST
Moon 1:21 AM PST (3/5) 11:48 AM PST (3/5)
Length of Visible Light 12h 26m
Length of Day
11h 36m
Last Quarter, 39% of the Moon is Illuminated
Mar 5
Last Quarter
Mar 11
New
Mar 19
First Quarter
Mar 27
Full
Apr 2
Last Quarter

Hourly Weather History & Observations

Time (PST) Temp. Dew Point Humidity Pressure Visibility Wind Dir Wind Speed Gust Speed Precip Events Conditions
12:47 AM 54.0 °F 48.9 °F 83% 30.10 in 9.0 mi Calm Calm - N/A   Clear
1:37 AM 53.6 °F 48.2 °F 82% 30.09 in 8.0 mi Calm Calm - N/A   Mostly Cloudy
1:47 AM 53.1 °F 48.9 °F 86% 30.09 in 8.0 mi Calm Calm - N/A   Mostly Cloudy
2:47 AM 54.0 °F 48.9 °F 83% 30.08 in 7.0 mi Calm Calm - N/A   Overcast
3:47 AM 55.0 °F 50.0 °F 83% 30.09 in 6.0 mi Calm Calm - N/A   Haze
4:47 AM 55.0 °F 48.9 °F 80% 30.09 in 6.0 mi Calm Calm - N/A   Haze
5:47 AM 55.0 °F 48.9 °F 80% 30.10 in 5.0 mi Calm Calm - N/A   Haze
6:47 AM 55.9 °F 50.0 °F 80% 30.09 in 5.0 mi Calm Calm - N/A   Haze
7:47 AM 55.9 °F 48.9 °F 77% 30.10 in 3.0 mi Calm Calm - N/A   Haze
8:47 AM 57.0 °F 48.9 °F 74% 30.11 in 4.0 mi Calm Calm - N/A   Haze
9:39 AM 57.2 °F 48.2 °F 72% 30.11 in 5.0 mi Calm Calm - N/A   Haze
9:47 AM 57.0 °F 48.9 °F 74% 30.12 in 5.0 mi Calm Calm - N/A   Haze
10:47 AM 59.0 °F 48.9 °F 69% 30.11 in 5.0 mi Calm Calm - N/A   Haze
11:47 AM 59.0 °F 50.0 °F 72% 30.09 in 5.0 mi Variable 4.6 mph - N/A   Haze
12:47 PM 62.1 °F 50.0 °F 65% 30.07 in 5.0 mi Calm Calm - N/A   Haze
1:04 PM 62.6 °F 48.2 °F 59% 30.06 in 5.0 mi Calm Calm - N/A   Haze
1:22 PM 62.6 °F 48.2 °F 59% 30.05 in 5.0 mi Variable 3.5 mph - N/A   Haze
1:47 PM 64.0 °F 48.0 °F 56% 30.04 in 6.0 mi Variable 3.5 mph - N/A   Haze
1:54 PM 64.4 °F 48.2 °F 56% 30.04 in 7.0 mi Calm Calm - N/A   Scattered Clouds
2:06 PM 64.4 °F 48.2 °F 56% 30.04 in 6.0 mi Variable 3.5 mph - N/A   Haze
2:47 PM 61.0 °F 48.9 °F 64% 30.04 in 9.0 mi Variable 4.6 mph - N/A   Overcast
3:47 PM 57.9 °F 48.9 °F 72% 30.04 in 10.0 mi Variable 3.5 mph - N/A   Overcast
4:47 PM 55.9 °F 48.9 °F 77% 30.04 in 10.0 mi Calm Calm - N/A   Overcast
5:47 PM 55.9 °F 48.0 °F 75% 30.06 in 10.0 mi Calm Calm - N/A   Overcast
6:47 PM 55.0 °F 48.0 °F 77% 30.07 in 10.0 mi Calm Calm - N/A   Mostly Cloudy
7:03 PM 55.4 °F 48.2 °F 77% 30.07 in 10.0 mi Calm Calm - N/A   Scattered Clouds
7:47 PM 55.0 °F 46.9 °F 74% 30.07 in 10.0 mi Calm Calm - N/A   Overcast
8:47 PM 55.9 °F 46.0 °F 69% 30.09 in 10.0 mi Calm Calm - N/A   Overcast
9:47 PM 55.0 °F 48.0 °F 77% 30.11 in 10.0 mi Calm Calm - N/A   Overcast
9:55 PM 55.4 °F 46.4 °F 72% 30.10 in 10.0 mi Calm Calm - N/A   Overcast
10:04 PM 53.6 °F 46.4 °F 77% 30.11 in 10.0 mi Variable 4.6 mph - N/A   Overcast
10:34 PM 53.6 °F 46.4 °F 77% 30.11 in 10.0 mi West 6.9 mph - N/A   Overcast
10:47 PM 54.0 °F 46.0 °F 75% 30.12 in 10.0 mi Variable 3.5 mph - N/A   Overcast
11:47 PM 53.1 °F 44.1 °F 71% 30.13 in 10.0 mi Variable 3.5 mph - N/A   Overcast